EHI
0 0 0 0 0 0 0 0 0 0 0 0 0 0 0 0 0 0 0 0 0 0 0 0 0 0 0 0 0 0 0 0 0 0 0 0 0 0 0 0 0 0 0 0 0 0 0 0 0
0 0 0 0 0 0 0 0 0 0 0 0 0 0 0 0 0 0 0 0 0 0 0 0 0 0 0 0 0 0 0 0 0 0 0 0 0 0 0 0 0 0 0 0 0 0 0 0 0
0 0 0 0 0 0 0 0 0 0 0 0 0 0 0 0 0 0 0 0 0 0 0 0 0 0 0 0 0 0 0 0 0 0 0 0 0 0 0 0 0 0 0 0 0 0 0 0 0
0 0 0 0 0 0 0 0 0 0 0 0 0 0 0 0 0 0 0 0 0 0 0 0 0 0 0 0 0 0 0 0 0 0 0 0 0 0 0 0 0 0 0 0 0 0 0 0 0
0 0 0 0 0 0 0 0 0 0 0 0 0 0 0 0 0 0 0 0 0 0 0 0 0 0 0 0 0 0 0 0 0 0 0 0 0 0 0 0 0 0 0 0 0 0 0 0 0
0 0 0 0 0 0 0 0 0 0 0 0 0 0 0 0 0 0 0 0 0 0 0 0 0 0 0 0 0 0 0 0 0 0 0 0 0 0 0 0 0 0 0 0 0 0 0 0 0
0 0 0 0 0 0 0 0 0 0 0 0 0 0 0 0 0 0 0 0 0 0 0 0 0 0 0 0 0 0 0 0 0 0 0 0 0 0 0 0 0 0 0 0 0 0 0 0 0
0 0 0 0 0 0 0 0 0 0 0 0 0 0 0 0 0 0 0 0 0 0 0 0 0 0 0 0 0 0 0 0 0 0 0 0 0 0 0 0 0 0 0 0 0 0 0 0 0
0 0 0 0 0 0 0 0 0 0 0 0 0 0 0 0 0 0 0 0 0 0 0 0 0 0 0 0 0 0 0 0 0 0 0 0 0 0 0 0 0 0 0 0 0 0 0 0 0
0 0 0 0 0 0 0 0 0 0 0 0 0 0 0 0 0 0 0 0 0 0 0 0 0 0 0 0 0 0 0 0 0 0 0 0 0 0 0 0 0 0 0 0 0 0 0 0 0
0 0 0 0 0 0 0 0 0 0 0 0 0 0 0 0 0 0 0 0 0 0 0 0 0 0 0 0 0 0 0 0 0 0 0 0 0 0 0 0 0 0 0 0 0 0 0 0 0
0 0 0 0 0 0 0 0 0 0 0 0 0 0 0 0 0 0 0 0 0 0 0 0 0 0 0 0 0 0 0 0 0 0 0 0 0 0 0 0 0 0 0 0 0 0 0 0 0
0 0 0 0 0 0 0 0 0 0 0 0 0 0 0 0 0 0 0 0 0 0 0 0 0 0 0 0 0 0 0 0 0 0 0 0 0 0 0 0 0 0 0 0 0 0 0 0 0
0 0 0 0 0 0 0 0 0 0 0 0 0 0 0 0 0 0 0 0 0 0 0 0 0 0 0 0 0 0 0 0 0 0 0 0 0 0 0 0 0 0 0 0 0 0 0 0 0
0 0 0 0 0 0 0 0 0 0 0 0 0 0 0 0 0 0 0 0 0 0 0 0 0 0 0 0 0 0 0 0 0 0 0 0 0 0 0 0 0 0 0 0 0 0 0 0 0
0 0 0 0 0 0 0 0 0 0 0 0 0 0 0 0 0 0 0 0 0 0 0 0 0 0 0 0 0 0 0 0 0 0 0 0 0 0 0 0 0 0 0 0 0 0 0 0 0
0 0 0 0 0 0 0 0 0 0 0 0 0 0 0 0 0 0 0 0 0 0 0 0 0 0 0 0 0 0 0 0 0 0 0 0 0 0 0 0 0 0 0 0 0 0 0 0 0
0 0 0 0 0 0 0 0 0 0 0 0 0 0 0 0 0 0 0 0 0 0 0 0 0 0 0 0 0 0 0 0 0 0 0 0 0 0 0 0 0 0 0 0 0 0 0 0 0
0 0 0 0 0 0 0 0 0 0 0 0 0 0 0 0 0 0 0 0 0 0 0 0 0 0 0 0 0 0 0 0 0 0 0 0 0 0 0 0 0 0 0 0 0 0 0 0 0
0 0 0 0 0 0 0 0 0 0 0 0 0 0 0 0 0 0 0 0 0 0 0 0 0 0 0 0 0 0 0 0 0 0 0 0 0 0 0 0 0 0 0 0 0 0 0 0 0
0 0 0 0 0 0 0 0 0 0 0 0 0 0 0 0 0 0 0 0 0 0 0 0 0 0 0 0 0 0 0 0 0 0 0 0 0 0 0 0 0 0 0 0 0 0 0 0 0
0 0 0 0 0 0 0 0 0 0 0 0 0 0 0 0 0 0 0 0 0 0 0 0 0 0 0 0 0 0 0 0 0 0 0 0 0 0 0 0 0 0 0 0 0 0 0 0 0
0 0 0 0 0 0 0 0 0 0 0 0 0 0 0 0 0 0 0 0 0 0 0 0 0 0 0 0 0 0 0 0 0 0 0 0 0 0 0 0 0 0 0 0 0 0 0 0 0
0 0 0 0 0 0 0 0 0 0 0 0 0 0 0 0 0 0 0 0 0 0 0 0 0 0 0 0 0 0 0 0 0 0 0 0 0 0 0 0 0 0 0 0 0 0 0 0 0
0 0 0 0 0 0 0 0 0 0 0 0 0 0 0 0 0 0 0 0 0 0 0 0 0 0 0 0 0 0 0 0 0 0 0 0 0 0 0 0 0 0 0 0 0 0 0 0 0
0 0 0 0 0 0 0 0 0 0 0 0 0 0 0 0 0 0 0 0 0 0 0 0 0 0 0 0 0 0 0 0 0 0 0 0 0 0 0 0 0 0 0 0 0 0 0 0 0
0 0 0 0 0 0 0 0 0 0 0 0 0 0 0 0 0 0 0 0 0 0 0 0 0 0 0 0 0 0 0 0 0 0 0 0 0 0 0 0 0 0 0 0 0 0 0 0 0
0 0 0 0 0 0 0 0 0 0 0 0 0 0 0 0 0 0 0 0 0 0 0 0 0 0 0 0 0 0 0 0 0 0 0 0 0 0 0 0 0 0 0 0 0 0 0 0 0
0 0 0 0 0 0 0 0 0 0 0 0 0 0 0 0 0 0 0 0 0 0 0 0 0 0 0 0 0 0 0 0 0 0 0 0 0 0 0 0 0 0 0 0 0 0 0 0 0
0 0 0 0 0 0 0 0 0 0 0 0 0 0 0 0 0 0 0 0 0 0 0 0 0 0 0 0 0 0 0 0 0 0 0 0 0 0 0 0 0 0 0 0 0 0 0 0 0
Wind_Speed
3 3 3 4 5 4 2 1 2 4 5 3 3 4 4 4 3 3 7 11 13 14 12 14 13 11 10 9 9 9 9 9 10 10 11 12 12 13 14 14 15 15 16 17 17 18 18 18 19
2 3 4 4 5 5 1 3 5 4 4 5 4 4 5 4 2 6 10 12 14 13 12 12 14 12 11 10 9 9 9 9 9 10 10 11 11 12 13 13 14 14 15 15 16 16 17 18 18
2 3 3 4 5 5 4 1 3 5 5 6 6 5 5 2 5 8 11 16 14 13 12 12 14 13 11 10 9 9 9 9 9 9 9 10 10 11 12 12 13 13 13 14 15 15 16 17 17
3 3 3 6 6 3 4 0 4 8 7 6 5 6 4 1 4 8 14 17 15 14 13 13 14 13 12 11 10 9 9 9 9 8 8 9 9 10 10 11 11 12 12 13 14 14 15 16 16
2 3 6 7 7 2 2 2 6 9 8 8 8 6 5 6 5 11 16 17 15 14 13 13 15 14 13 11 10 10 9 9 8 8 8 8 8 8 9 9 10 10 11 12 12 13 14 15 15
2 4 8 9 9 4 3 5 7 9 8 7 8 7 3 8 11 14 16 16 15 14 12 12 15 14 13 12 11 10 10 9 9 8 7 7 7 7 7 8 8 9 9 10 11 12 13 14 14
3 5 9 11 11 10 3 7 8 9 11 10 7 6 6 10 12 15 16 15 14 14 13 11 13 14 14 13 12 11 10 10 9 8 7 7 6 6 6 6 7 7 8 9 10 11 12 13 13
2 5 10 11 12 13 3 8 5 8 8 4 7 8 4 11 15 16 15 14 14 13 13 12 12 12 12 12 13 12 11 10 10 9 8 7 6 6 5 4 6 6 6 7 8 9 10 11 12
3 7 11 12 11 9 5 8 5 4 5 6 7 5 4 14 18 17 15 15 15 15 14 14 13 12 11 10 12 12 12 11 11 10 9 7 5 4 3 4 4 5 5 6 7 8 8 7 8
3 8 11 6 6 5 5 8 6 7 10 10 10 9 7 16 20 21 21 21 21 21 18 15 15 13 12 9 9 8 8 9 9 7 8 6 5 3 3 5 3 4 4 4 6 6 5 5 4
4 8 6 5 5 5 5 7 6 9 14 15 14 15 17 19 21 22 23 22 22 20 19 17 15 14 13 9 8 6 6 7 8 9 8 6 5 4 4 3 4 3 2 1 1 1 3 4 4
5 6 5 4 3 5 6 6 8 14 16 7 10 10 19 22 24 24 24 22 20 21 21 19 17 15 14 12 9 9 7 7 7 8 10 7 5 5 4 4 3 3 2 1 1 1 2 3 4
6 5 4 5 6 7 8 12 11 17 18 11 6 12 20 22 23 23 21 20 20 21 21 20 19 17 15 13 10 9 9 9 9 8 9 9 7 6 6 4 4 4 3 3 2 2 3 4 4
3 5 7 7 7 6 9 12 10 19 13 14 15 17 19 22 23 22 22 22 22 22 22 21 21 19 17 13 12 10 10 9 9 9 11 11 8 7 6 6 5 5 4 3 3 4 4 4 4
3 7 9 7 6 4 6 13 15 17 9 14 18 19 20 21 22 24 24 24 23 22 22 22 21 20 19 17 15 10 10 10 10 9 11 12 10 9 7 6 6 5 5 5 4 5 5 5 6
4 6 7 3 5 4 6 17 13 9 12 17 18 18 19 21 23 23 22 22 21 21 21 22 17 20 20 17 15 11 10 11 10 10 10 13 13 11 9 7 7 7 6 5 5 5 5 6 6
5 7 10 8 5 5 9 21 21 10 13 19 19 19 19 19 22 22 22 22 21 21 21 22 21 21 20 18 14 12 11 12 10 10 10 12 14 13 10 8 7 8 7 6 6 6 6 6 7
8 12 13 13 4 7 14 24 28 19 17 22 22 20 19 20 21 20 21 21 20 20 20 21 21 21 19 15 13 11 12 12 11 11 12 14 13 15 12 9 10 10 8 8 8 8 7 6 6
10 12 17 18 9 8 18 26 29 24 18 20 20 19 19 20 18 16 17 19 19 19 21 21 22 21 18 14 14 13 13 12 12 12 15 16 15 16 14 10 11 11 10 10 10 8 9 8 6
8 13 16 13 2 7 17 26 26 18 14 14 15 16 15 15 14 14 15 17 20 21 22 22 23 22 21 16 14 11 12 11 13 12 14 17 17 17 14 15 12 12 10 12 11 11 8 7 6
10 12 13 13 12 7 11 16 9 6 6 7 8 9 10 11 12 12 15 17 19 21 23 20 22 22 22 20 13 11 10 9 12 15 14 17 19 18 17 17 15 13 13 11 13 12 13 9 8
10 5 8 10 11 8 6 11 13 8 9 8 9 7 6 6 7 9 12 16 19 20 18 20 21 21 21 21 18 20 17 17 18 14 14 17 19 20 19 18 17 15 13 13 13 13 11 11 9
6 3 6 7 8 9 4 8 11 7 10 14 14 12 10 7 5 6 10 13 15 15 16 17 19 21 21 22 23 22 21 19 14 15 17 18 18 20 20 19 18 17 14 15 15 14 14 11 11
4 5 4 3 4 6 1 5 9 5 10 15 16 15 13 11 8 5 6 8 11 12 14 16 19 21 21 23 24 25 26 23 20 19 17 16 14 15 21 20 19 18 15 16 15 15 16 13 13
3 6 5 4 3 3 1 7 11 8 9 11 13 15 14 12 10 8 6 6 9 12 14 16 18 20 21 23 24 26 27 25 25 22 19 18 15 15 20 20 19 18 17 16 15 15 15 16 16
2 5 5 6 7 7 4 8 9 9 9 7 7 9 11 13 12 10 8 6 7 10 13 16 19 20 20 22 24 24 24 19 18 22 19 18 16 16 18 20 20 20 19 17 16 14 15 14 15
2 2 3 6 6 7 7 8 12 5 3 7 11 13 15 16 15 13 11 8 7 8 10 13 16 18 19 21 22 22 23 22 21 21 20 17 17 15 19 20 20 20 19 19 17 14 16 14 15
3 1 3 5 6 8 8 8 7 10 13 14 14 16 17 16 15 14 12 11 9 7 8 10 14 16 17 18 18 16 20 22 21 19 21 20 19 18 18 19 20 20 19 19 18 15 15 16 15
5 4 6 5 5 7 9 8 6 10 12 12 14 16 16 15 14 13 12 11 10 8 7 8 10 13 14 15 16 18 19 19 20 20 22 21 19 20 20 19 20 20 20 19 18 18 17 17 16
4 5 6 6 7 7 10 12 9 9 9 10 14 16 14 12 12 12 12 12 11 10 9 8 9 11 12 13 14 17 17 18 19 21 21 20 20 19 20 19 20 20 20 20 20 19 18 18 17
Wind_Direction
165 198 220 227 224 236 273 102 173 166 174 143 150 199 225 231 273 27 117 151 145 150 152 151 149 142 135 126 116 105 95 86 80 74 70 66 62 58 56 53 50 48 46 44 43 41 40 39 39
196 221 219 232 249 253 240 163 199 184 129 140 174 209 226 220 77 115 152 157 156 153 154 151 149 147 142 135 125 115 104 95 87 80 74 69 64 59 57 54 50 48 46 44 42 40 38 37 37
201 252 235 228 249 282 316 156 188 130 147 178 186 221 252 206 159 165 161 160 163 159 157 149 154 152 148 142 134 124 115 105 95 87 79 74 67 61 58 54 50 48 45 43 42 40 37 35 35
236 211 225 244 254 287 308 131 164 162 176 208 211 207 211 178 166 161 154 163 168 164 162 157 161 158 155 150 142 134 125 115 105 95 87 80 73 65 60 56 51 48 44 42 40 39 36 34 33
243 246 238 246 262 260 244 210 183 195 190 193 210 232 200 153 153 154 161 168 172 168 168 165 167 165 162 158 152 145 135 126 117 107 97 88 80 71 65 60 53 48 44 41 39 38 36 33 31
222 254 257 264 275 267 224 193 190 216 205 184 209 236 187 144 164 164 166 173 175 170 172 171 172 171 168 166 160 154 146 139 130 120 108 97 89 79 69 64 58 51 45 41 39 38 35 30 29
276 274 272 279 284 279 234 174 208 218 211 200 202 224 161 172 171 166 169 176 177 175 176 176 174 175 174 172 168 163 157 150 142 132 120 108 97 87 74 66 63 55 46 43 40 38 35 29 27
314 274 271 273 280 286 189 178 227 229 222 172 200 230 191 167 164 167 171 179 182 184 185 182 180 176 176 176 174 170 165 160 152 142 133 121 109 101 88 81 70 60 49 45 41 38 35 27 25
255 264 271 277 279 288 170 198 201 229 221 198 219 246 60 141 157 167 175 185 190 193 193 191 187 182 182 180 172 174 172 167 162 155 148 148 151 142 138 87 76 67 51 46 41 37 31 21 24
235 267 276 288 276 282 207 224 206 206 221 220 217 206 152 157 169 179 187 191 194 196 195 194 193 188 187 182 178 180 176 172 180 172 167 174 171 158 145 114 94 78 59 51 41 33 18 2 5
241 266 279 252 253 264 241 230 217 226 236 229 223 199 175 176 184 192 198 199 199 196 194 196 196 192 190 185 185 182 180 180 186 187 182 181 177 170 185 178 165 164 177 166 70 324 7 0 359
250 255 262 261 228 237 242 238 226 230 246 262 238 195 176 186 194 199 202 203 199 199 198 196 196 195 195 192 190 189 187 187 188 189 190 188 188 194 193 203 195 200 201 219 268 320 339 332 330
245 263 247 250 243 247 253 246 255 251 249 242 218 186 190 197 202 206 207 205 202 202 200 198 197 197 196 196 196 196 196 194 191 189 194 196 196 198 197 202 202 209 211 220 244 267 290 295 302
288 268 263 256 245 242 254 261 251 261 250 229 219 211 207 207 207 206 207 207 205 205 202 199 199 199 197 198 199 199 199 197 197 194 197 200 203 202 201 204 207 211 214 224 241 257 272 279 282
264 278 268 234 231 243 264 261 235 251 231 228 224 223 218 217 212 211 208 208 206 205 202 200 199 200 200 203 204 202 200 198 200 200 200 200 204 204 204 209 209 210 210 217 231 239 253 262 268
243 258 270 203 206 208 248 272 267 254 229 240 238 230 224 221 218 217 213 211 208 205 203 201 197 201 203 204 205 205 204 202 203 202 201 203 205 205 206 209 211 207 208 217 224 233 243 248 259
233 276 293 297 206 215 240 275 283 274 243 253 253 244 233 228 223 220 215 211 208 206 203 201 200 202 203 205 206 208 207 207 207 204 205 205 206 206 208 212 211 205 210 216 221 228 238 250 257
298 298 294 294 279 238 259 273 283 280 256 259 261 256 244 236 230 220 214 211 208 206 204 204 202 205 203 203 207 209 213 213 212 210 209 206 206 206 209 212 212 207 211 215 217 226 229 245 259
289 283 287 293 303 268 274 281 286 292 281 267 263 260 253 246 240 223 211 208 206 205 205 205 204 204 201 200 204 206 211 212 213 214 213 210 209 206 209 211 210 209 214 217 219 224 231 234 240
260 278 288 299 321 270 292 289 288 292 287 279 277 273 266 259 242 220 208 204 205 205 205 206 206 204 203 204 205 209 214 217 217 216 217 214 211 209 209 212 210 209 214 217 218 219 227 232 224
266 271 293 305 314 263 303 292 291 322 315 303 293 284 278 266 252 225 210 209 207 209 207 207 207 206 206 204 204 207 213 220 216 217 216 215 213 211 210 213 213 211 213 216 215 214 220 228 222
285 299 282 291 304 307 337 304 305 336 335 3 8 2 336 301 263 239 217 213 212 214 210 211 210 210 208 204 207 206 209 216 218 216 216 214 213 213 212 213 213 214 214 217 216 215 219 226 230
288 328 282 285 285 286 261 271 293 330 356 3 4 6 4 352 312 262 235 225 221 216 212 212 213 213 211 209 211 214 222 226 226 220 220 217 213 213 212 212 212 214 215 217 217 214 217 219 228
282 269 236 222 245 261 248 273 293 351 353 343 347 356 1 358 347 314 265 238 228 218 214 214 215 217 214 213 215 218 224 226 226 223 220 217 214 212 213 212 212 213 214 215 216 216 218 220 225
262 295 288 271 254 290 83 264 264 308 332 326 328 340 353 357 354 344 319 262 235 222 217 216 218 221 217 216 218 221 226 228 228 226 223 219 216 213 211 208 211 212 213 214 214 216 219 221 224
320 296 316 312 309 311 278 259 274 313 315 316 327 344 358 1 356 345 330 295 258 234 222 218 221 225 221 220 223 225 227 229 232 230 226 223 221 218 213 209 211 212 211 211 212 216 219 221 224
250 234 335 287 281 276 271 275 289 275 301 353 4 2 358 352 347 341 336 323 296 263 237 226 226 228 226 225 226 227 227 228 231 232 231 229 227 221 215 211 211 211 210 210 210 215 217 219 224
306 229 208 253 289 289 282 274 270 302 328 342 351 351 348 345 342 341 340 336 323 300 271 244 236 236 235 231 230 231 231 231 233 233 232 230 228 223 218 213 211 210 210 209 210 215 218 219 223
179 196 226 248 265 282 291 277 261 288 315 332 337 342 341 341 342 343 342 340 332 319 298 271 254 248 245 239 237 236 235 234 233 233 233 231 228 223 220 216 212 210 209 208 209 213 214 218 223
247 240 218 253 262 246 279 279 276 284 312 326 330 336 339 341 342 343 344 343 341 333 318 294 271 258 252 247 243 241 240 237 235 235 234 231 229 225 221 217 214 212 210 208 210 212 213 216 221